This is the latest recevied weather packets stored in our database for station/object OK1FET-5. If no packets are shown the sender has not sent any weather packets the latest 10 day(s).
| Time | Temp. | Humidity | Pressure | Rain* | Wind** | Luminosity | Snow |
|---|---|---|---|---|---|---|---|
| 1777964411 | 23.33° C | 47% | 1009.3 hPa | - | - | - | - |
| 1777964116 | 23.33° C | 47% | 1009.3 hPa | - | - | - | - |
| 1777963526 | 21.11° C | 50% | 1009.4 hPa | - | - | - | - |
| 1777963231 | 19.44° C | 51% | 1009.4 hPa | - | - | - | - |
| 1777962936 | 18.89° C | 52% | 1009.5 hPa | - | - | - | - |
| 1777962641 | 18.89° C | 53% | 1009.5 hPa | - | - | - | - |
| 1777962347 | 18.33° C | 55% | 1009.5 hPa | - | - | - | - |
| 1777961757 | 17.22° C | 55% | 1009.5 hPa | - | - | - | - |
| 1777961463 | 17.22° C | 56% | 1009.6 hPa | - | - | - | - |
| 1777961168 | 16.67° C | 56% | 1009.7 hPa | - | - | - | - |
| 1777960874 | 16.11° C | 57% | 1009.7 hPa | - | - | - | - |
| 1777960579 | 16.11° C | 57% | 1009.7 hPa | - | - | - | - |
| 1777960285 | 15.56° C | 57% | 1009.7 hPa | - | - | - | - |
| 1777959696 | 15° C | 59% | 1009.6 hPa | - | - | - | - |
| 1777959402 | 15° C | 58% | 1009.5 hPa | - | - | - | - |
| 1777959107 | 15° C | 62% | 1009.4 hPa | - | - | - | - |
| 1777958813 | 15.56° C | 59% | 1009.5 hPa | - | - | - | - |
| 1777958518 | 15.56° C | 58% | 1009.5 hPa | - | - | - | - |
| 1777958224 | 15.56° C | 55% | 1009.6 hPa | - | - | - | - |
| 1777958224 | 15.56° C | 55% | 1009.6 hPa | - | - | - | - |
| 1777957930 | 16.11° C | 55% | 1009.6 hPa | - | - | - | - |
| 1777957635 | 16.11° C | 53% | 1009.6 hPa | - | - | - | - |
| 1777957635 | 16.11° C | 53% | 1009.6 hPa | - | - | - | - |
| 1777957341 | 16.11° C | 52% | 1009.7 hPa | - | - | - | - |
| 1777957046 | 16.11° C | 53% | 1009.6 hPa | - | - | - | - |
* Rain since midnight (hover to see other rain measurements)
** Current wind speed in m/s (hover to see current wind gust speed)